TimeCST,TemperatureF,Dew PointF,Humidity,Sea Level PressureIn,VisibilityMPH,Wind Direction,Wind SpeedMPH,Gust SpeedMPH,PrecipitationIn,Events,Conditions,WindDirDegrees,DateUTC
12:52 AM,19.9,7.0,57,29.79,10.0,ENE,6.9,-,N/A,,Overcast,60,2014-02-14 06:52:00
1:52 AM,18.0,10.0,71,29.77,6.0,NE,9.2,-,0.00,Snow,Light Snow,50,2014-02-14 07:52:00
2:52 AM,18.0,10.0,71,29.80,10.0,North,11.5,-,0.00,,Overcast,350,2014-02-14 08:52:00
3:52 AM,18.0,10.0,71,29.81,10.0,North,11.5,-,N/A,,Overcast,360,2014-02-14 09:52:00
4:35 AM,18.0,10.0,71,29.80,10.0,North,17.3,-,N/A,,Overcast,350,2014-02-14 10:35:00
4:52 AM,17.1,10.0,74,29.85,10.0,North,15.0,-,N/A,,Overcast,360,2014-02-14 10:52:00
5:52 AM,16.0,9.0,74,29.88,10.0,North,16.1,-,N/A,,Overcast,10,2014-02-14 11:52:00
6:30 AM,16.0,10.0,77,29.86,10.0,North,13.8,-,N/A,,Overcast,360,2014-02-14 12:30:00
6:42 AM,16.0,10.9,81,29.87,10.0,North,11.5,-,0.00,,Overcast,350,2014-02-14 12:42:00
6:52 AM,16.0,10.9,81,29.93,10.0,North,9.2,-,0.00,,Overcast,360,2014-02-14 12:52:00
7:40 AM,15.1,9.0,77,29.92,10.0,North,15.0,-,N/A,,Overcast,350,2014-02-14 13:40:00
7:52 AM,15.1,9.0,77,29.99,10.0,North,12.7,-,N/A,,Overcast,350,2014-02-14 13:52:00
8:22 AM,15.1,8.1,74,29.95,10.0,NNW,12.7,-,0.00,,Overcast,340,2014-02-14 14:22:00
8:52 AM,15.1,7.0,70,30.02,10.0,North,15.0,-,0.00,,Overcast,360,2014-02-14 14:52:00
9:38 AM,16.0,7.0,68,29.99,10.0,North,15.0,-,N/A,,Mostly Cloudy,10,2014-02-14 15:38:00
9:52 AM,17.1,7.0,65,30.05,10.0,North,16.1,-,N/A,,Scattered Clouds,350,2014-02-14 15:52:00
10:52 AM,19.0,7.0,59,30.09,10.0,North,15.0,-,N/A,,Clear,360,2014-02-14 16:52:00
11:52 AM,19.9,6.1,55,30.10,10.0,NNW,12.7,-,N/A,,Partly Cloudy,340,2014-02-14 17:52:00
12:52 PM,21.9,7.0,53,30.10,10.0,NNW,16.1,-,N/A,,Clear,330,2014-02-14 18:52:00
1:52 PM,24.1,7.0,48,30.10,10.0,NW,12.7,19.6,N/A,,Clear,320,2014-02-14 19:52:00
2:52 PM,24.1,6.1,46,30.11,10.0,NW,16.1,-,N/A,,Clear,320,2014-02-14 20:52:00
3:52 PM,25.0,7.0,46,30.10,10.0,NNW,11.5,-,N/A,,Clear,330,2014-02-14 21:52:00
4:52 PM,24.1,6.1,46,30.12,10.0,NW,11.5,-,N/A,,Clear,320,2014-02-14 22:52:00
5:52 PM,19.9,5.0,52,30.15,10.0,NW,9.2,-,N/A,,Clear,310,2014-02-14 23:52:00
6:52 PM,17.1,6.1,62,30.12,10.0,NNE,5.8,-,N/A,,Clear,20,2014-02-15 00:52:00
7:52 PM,15.1,5.0,64,30.13,10.0,ENE,5.8,-,N/A,,Clear,60,2014-02-15 01:52:00
8:52 PM,10.0,3.0,73,30.15,10.0,Calm,Calm,-,N/A,,Clear,0,2014-02-15 02:52:00
9:52 PM,12.0,3.9,70,30.14,10.0,East,6.9,-,N/A,,Clear,80,2014-02-15 03:52:00
10:52 PM,10.0,3.9,76,30.09,10.0,ESE,5.8,-,N/A,,Clear,120,2014-02-15 04:52:00
11:52 PM,10.9,3.9,73,30.08,10.0,SSE,6.9,-,N/A,,Clear,160,2014-02-15 05:52:00